RH
52 58 50 52 57 59 61 58 52 47 46 48 45 41 39 42 39 39 43 41 43 43 39 40 40 40 41 41 39 41 44 46 44 49 50 49 46 45 45 45 39 40 40
44 53 53 55 60 61 62 60 53 50 47 45 45 41 40 39 41 43 42 42 41 47 43 41 40 39 43 42 41 45 47 47 45 46 50 52 48 48 43 45 40 39 40
40 49 54 56 61 62 64 61 56 53 49 46 50 49 49 51 49 47 47 45 41 48 46 44 40 42 44 47 46 47 49 54 50 46 49 53 55 53 49 48 45 44 43
31 41 50 55 58 62 64 63 58 56 51 51 52 51 45 46 42 44 44 46 41 45 49 51 43 44 43 47 49 44 51 51 56 54 36 44 42 54 60 51 50 45 44
29 32 46 51 54 59 66 65 61 58 54 55 50 51 47 42 43 42 45 43 43 44 47 49 51 47 45 46 46 50 51 52 47 54 52 47 50 46 54 64 61 52 51
34 29 41 49 55 61 65 68 65 62 57 57 52 51 52 49 50 48 47 45 44 46 47 48 51 54 49 47 49 50 53 52 49 47 45 41 44 46 47 49 61 58 56
39 40 51 58 61 68 68 66 65 66 57 58 55 52 51 51 49 50 47 45 45 47 49 50 54 52 55 52 52 51 52 52 54 55 46 40 39 38 42 45 60 61 59
52 52 56 60 64 67 66 62 64 64 58 56 56 53 52 50 48 49 47 47 44 45 44 49 49 48 47 49 50 54 54 53 58 57 56 48 43 42 42 51 61 66 64
55 59 59 59 62 62 62 59 60 59 58 55 56 55 54 52 51 51 52 47 44 42 45 48 48 48 48 48 50 49 51 52 57 61 61 50 47 49 48 49 58 65 69
54 55 56 57 56 58 60 58 55 56 56 55 53 55 56 54 52 53 55 53 48 46 46 48 47 47 47 46 48 50 48 48 57 55 54 51 49 50 54 60 56 59 65
55 54 55 54 54 54 57 58 57 57 57 56 55 56 59 56 55 56 54 52 52 48 48 46 46 45 46 45 47 48 48 50 51 50 52 52 49 50 52 58 56 61 56
54 55 54 54 54 56 58 60 60 60 59 55 55 58 58 59 58 60 58 54 54 52 50 48 46 46 45 44 47 48 44 49 49 51 51 50 42 57 54 57 60 59 55
59 58 56 57 57 57 58 61 63 64 62 60 62 63 62 62 62 62 62 60 60 57 54 53 52 50 49 46 45 44 45 46 46 48 50 50 50 62 60 58 56 59 42
73 64 63 59 62 66 70 77 82 72 65 62 62 66 65 63 63 64 65 64 62 63 62 58 56 57 51 50 47 45 46 45 44 51 52 49 51 57 64 59 60 53 59
99 94 90 77 76 79 79 78 78 70 64 68 71 71 68 64 64 68 69 68 69 67 66 65 62 60 57 52 53 51 50 52 51 55 52 56 60 61 59 50 60 58 57
94 93 92 84 87 88 88 86 88 86 83 82 81 78 76 77 80 77 76 73 76 74 72 74 76 79 65 67 70 63 55 56 59 57 58 54 70 64 58 52 53 54 59
94 94 92 91 92 91 88 91 85 84 90 94 94 91 86 85 81 78 78 84 80 76 79 80 78 78 73 70 68 68 62 64 64 67 64 60 57 67 65 62 57 55 52
93 91 94 96 90 88 86 87 85 87 87 89 90 80 86 87 82 87 88 83 83 86 85 85 85 85 78 73 71 72 76 69 68 67 67 71 80 82 80 72 68 65 67
94 95 96 96 95 92 88 89 88 83 85 88 82 75 78 84 81 85 83 80 83 85 85 84 86 85 85 81 81 81 96 89 91 95 95 96 97 92 82 77 75 68 67
95 96 95 96 91 89 86 81 82 83 82 82 80 79 80 80 80 80 77 78 78 81 81 85 79 79 82 77 82 84 96 98 97 98 98 98 97 87 80 96 87 83 69
95 92 95 96 97 92 93 81 79 84 76 73 73 74 76 78 76 78 79 78 85 82 82 82 79 79 78 79 79 82 98 96 97 97 97 97 97 97 95 97 97 75 60
94 93 95 96 96 95 94 92 88 75 71 72 74 73 73 73 78 79 79 80 83 91 90 84 81 75 73 77 80 81 84 96 93 93 86 87 92 98 97 96 88 69 58
95 93 95 95 96 95 94 92 86 76 75 76 76 77 74 70 72 78 81 80 80 82 89 84 81 76 73 73 76 80 79 92 98 84 75 81 80 97 96 96 86 69 76
96 94 94 95 96 95 94 96 89 79 82 82 85 82 83 74 72 74 75 78 83 88 83 81 78 75 73 74 70 72 79 82 97 96 78 94 93 97 98 97 97 76 69
94 94 95 96 96 95 94 94 93 86 85 82 87 83 76 80 74 72 76 79 78 80 87 85 82 82 85 72 68 71 79 97 98 98 97 98 97 96 98 98 96 94 69
91 95 96 97 96 96 97 96 96 92 92 81 74 78 76 79 75 74 76 66 66 68 72 83 83 86 74 71 74 74 74 80 96 99 96 93 89 84 92 95 92 98 91
Wind_Speed
16 17 15 16 15 14 14 14 13 12 8 6 6 5 5 4 4 4 5 5 5 5 6 5 6 6 5 6 7 7 8 7 8 7 7 6 7 7 6 5 6 7 7
16 17 16 17 15 15 15 14 13 13 9 6 5 3 5 4 4 4 4 4 6 5 5 5 5 5 5 7 7 7 6 6 1 3 4 3 4 5 5 4 5 6 5
16 16 17 18 16 16 15 15 14 13 10 9 6 5 5 4 3 4 4 4 5 5 4 5 5 5 5 5 6 6 7 4 2 2 3 2 3 4 3 4 4 4 4
13 16 17 17 17 15 14 14 14 13 10 10 8 9 5 5 4 5 5 4 5 5 5 5 5 5 4 6 5 5 3 2 4 2 1 2 4 2 3 3 3 3 4
12 14 16 16 15 14 12 12 14 13 11 10 8 6 5 4 4 4 6 5 5 5 5 5 5 5 4 5 6 5 3 2 0 1 2 1 1 2 2 4 3 2 3
9 13 13 14 13 12 12 11 13 13 12 10 9 8 6 6 5 5 5 5 5 4 5 5 5 5 5 5 5 5 5 4 2 2 2 3 2 3 2 3 5 5 4
8 10 12 12 13 13 13 12 14 13 12 11 10 8 6 6 6 6 5 6 5 4 6 6 6 5 5 5 5 5 5 4 4 4 3 3 2 2 2 2 3 3 3
9 11 12 12 13 13 13 13 13 13 12 11 10 8 7 4 4 5 4 4 4 4 5 6 5 6 6 5 5 4 4 5 4 5 4 2 2 2 2 1 4 3 3
10 11 11 11 11 11 11 12 12 12 11 10 8 8 6 6 5 4 4 3 4 3 4 5 5 5 5 5 5 4 5 4 4 4 4 3 2 2 1 1 3 3 4
11 11 10 10 10 10 9 8 9 9 9 9 8 6 7 6 5 5 6 6 5 5 5 6 6 6 6 6 6 5 5 5 3 3 5 4 3 3 2 2 2 1 2
11 10 11 10 10 10 10 9 8 8 7 6 6 6 5 6 5 5 6 6 5 5 6 7 7 7 7 7 7 7 6 7 6 5 6 6 5 4 3 3 2 3 2
11 10 11 11 11 11 10 9 9 8 6 5 5 4 4 5 5 5 5 5 6 6 6 7 7 7 7 7 8 8 7 8 8 7 7 7 5 5 4 3 4 3 1
11 10 10 10 10 10 10 9 9 8 6 6 6 5 4 3 3 3 3 4 4 5 5 6 7 7 7 8 8 8 8 8 8 8 8 7 7 6 4 3 4 3 2
8 9 9 9 9 9 8 8 7 6 6 6 6 6 5 4 3 2 0 2 3 4 5 6 7 7 7 7 8 8 8 8 8 7 7 8 8 7 6 5 5 5 3
7 6 7 8 8 8 7 7 7 7 6 6 6 5 5 4 4 3 3 2 2 3 3 4 6 6 7 6 8 9 9 8 8 6 7 6 7 10 9 5 5 5 4
10 8 7 8 7 7 6 5 6 6 6 5 5 4 4 4 3 3 3 3 3 3 4 4 4 4 4 6 8 9 7 7 7 8 8 6 7 7 11 8 9 7 5
11 10 9 8 6 6 5 5 4 3 3 3 2 2 2 2 2 3 3 3 3 4 4 5 5 6 5 10 13 13 7 6 7 6 7 7 7 9 7 9 8 8 9
11 10 7 4 5 4 4 3 1 1 2 3 4 3 2 3 3 2 3 4 4 4 4 5 4 5 5 10 12 14 10 8 7 7 8 8 7 7 8 8 8 8 5
8 7 4 3 3 4 4 3 2 1 0 2 3 4 5 4 5 4 5 5 5 5 5 4 5 6 6 9 13 12 8 9 8 8 9 10 10 14 19 11 9 8 6
6 5 4 4 5 6 6 1 3 2 3 3 4 5 6 7 6 6 7 7 7 7 6 5 7 10 9 11 12 13 7 8 7 8 9 18 12 19 21 11 10 10 10
6 6 5 5 4 6 5 4 5 6 6 7 7 7 7 8 8 7 7 7 6 6 8 9 9 10 10 10 15 16 7 7 7 6 6 6 19 19 22 19 9 11 9
6 5 5 5 4 6 5 6 7 8 8 8 8 8 7 6 6 8 7 7 6 6 6 8 8 8 10 14 15 18 19 16 9 9 7 8 18 19 19 17 16 18 15
5 4 4 5 5 6 6 5 7 8 9 8 8 8 8 8 7 8 8 7 7 7 6 6 7 7 6 7 16 19 20 19 12 7 12 15 17 20 18 20 20 17 8
4 3 4 5 5 4 5 4 6 8 7 7 7 7 6 8 7 6 5 6 6 5 6 7 8 7 6 6 6 8 9 16 13 13 10 11 13 13 10 10 13 9 9
4 4 4 3 4 4 4 4 5 7 7 7 5 6 6 7 8 7 6 5 6 7 6 6 7 7 7 7 12 12 7 6 5 9 7 7 7 8 7 7 7 9 10
4 3 3 3 3 3 4 4 4 6 6 7 6 6 6 6 7 7 7 12 16 17 19 19 15 8 16 18 17 17 19 17 14 8 7 8 8 9 7 8 7 6 11
Wind_Direction
180 188 185 179 178 176 172 166 162 158 154 158 158 152 146 138 133 115 131 130 138 125 123 122 129 130 130 127 124 115 116 113 116 109 89 81 73 71 66 54 64 60 58
173 179 182 181 181 180 178 169 168 163 166 162 156 148 135 146 126 128 136 136 145 150 144 142 142 137 125 133 138 137 131 129 147 115 145 138 120 75 64 66 68 64 59
184 179 184 183 184 185 181 176 171 169 166 157 134 128 109 123 151 159 150 158 154 161 163 158 154 143 148 150 152 148 153 144 186 294 322 172 100 142 110 73 70 67 64
200 185 187 186 184 186 182 178 171 171 166 158 165 167 171 167 176 170 159 156 165 164 170 173 168 162 168 164 169 174 192 222 144 184 258 1 96 174 154 148 106 93 74
209 196 187 184 184 180 176 177 172 171 168 173 178 177 184 151 147 154 158 164 167 167 168 181 182 176 187 179 182 178 190 241 295 245 159 165 183 319 129 150 157 143 115
197 190 180 173 170 170 172 171 170 174 170 175 182 185 180 157 161 167 172 174 173 175 179 184 186 196 195 194 196 191 208 221 239 286 232 210 200 178 185 110 141 166 156
152 156 164 165 162 163 170 170 173 175 174 179 183 189 187 179 184 173 187 178 181 185 185 189 193 197 203 208 202 209 214 219 229 224 230 250 276 355 255 114 129 147 131
137 154 159 160 163 165 165 167 173 173 176 180 184 186 191 190 197 183 190 185 196 192 186 190 198 206 199 205 209 218 219 221 214 228 231 233 224 228 222 196 141 150 150
125 129 138 144 149 155 162 167 171 171 178 180 179 186 188 200 194 191 192 199 196 186 179 191 197 200 202 204 203 217 217 217 211 220 206 220 176 211 187 251 184 183 172
123 119 116 119 120 123 130 138 156 162 168 174 179 184 190 198 205 198 193 200 199 188 192 194 201 199 203 203 203 216 213 206 196 195 202 204 173 177 166 201 205 246 260
131 123 115 110 109 111 114 117 123 132 144 162 173 174 184 192 201 209 214 212 211 201 206 205 205 210 210 209 207 216 204 212 199 200 208 195 181 184 179 180 177 188 224
130 123 119 115 110 106 106 104 104 103 106 122 145 162 168 184 196 208 221 218 217 215 218 216 214 217 217 216 217 219 213 211 211 200 208 195 188 186 176 173 184 165 218
136 130 124 117 109 105 103 96 90 90 91 103 114 123 129 153 176 191 208 217 227 234 227 232 228 228 225 223 220 224 220 218 222 208 208 197 190 191 177 179 153 123 171
137 128 121 111 101 99 98 92 76 67 73 85 94 91 81 80 80 78 113 224 230 233 228 233 235 238 238 231 233 230 231 221 223 213 205 203 197 191 177 176 175 159 171
133 115 104 106 103 96 88 82 72 61 51 64 67 58 48 42 37 37 23 349 293 282 261 253 253 249 244 240 229 228 224 223 218 205 208 203 199 198 185 173 173 165 169
146 128 116 111 97 89 87 78 64 53 39 47 54 38 33 24 21 7 349 326 296 264 251 229 235 260 265 265 249 248 229 224 211 204 198 196 164 175 184 191 179 179 172
148 143 133 121 103 95 87 79 80 66 51 34 357 42 42 19 359 333 323 303 291 288 275 268 243 226 232 248 248 241 232 223 207 195 189 185 189 185 176 182 181 195 204
141 140 118 99 86 56 49 30 66 48 23 358 335 334 339 327 327 313 301 294 279 266 269 269 263 256 223 234 241 242 230 230 218 205 185 179 177 188 180 189 187 197 187
106 104 77 51 25 49 29 14 20 117 6 337 318 340 340 322 310 301 294 293 283 273 255 248 264 262 261 235 249 241 219 212 204 190 189 194 196 199 201 194 190 189 186
81 79 56 48 72 14 346 332 88 75 52 357 327 325 320 312 305 301 302 295 291 284 283 271 265 264 263 260 254 251 213 200 203 203 205 201 195 204 204 197 192 189 184
82 77 67 69 31 0 336 41 42 45 358 341 327 314 308 302 298 296 291 288 279 277 280 279 273 268 262 263 257 249 223 204 201 198 196 202 212 210 213 198 199 190 165
73 56 78 65 28 15 20 38 38 357 348 340 328 325 319 310 303 298 293 288 281 268 268 275 274 268 265 260 257 251 251 207 200 197 198 202 213 211 211 212 201 188 182
85 63 66 73 43 28 31 38 1 353 344 335 336 331 325 314 301 294 290 287 281 276 268 267 272 273 263 253 262 258 252 241 219 208 201 196 209 211 210 213 196 185 191
82 63 66 60 50 21 31 28 355 346 337 337 336 325 328 315 314 307 290 284 280 269 264 269 269 268 265 257 251 258 263 257 244 203 206 197 199 203 194 199 192 182 191
75 56 58 55 42 6 14 12 352 347 347 340 331 335 325 331 317 307 299 286 282 269 272 268 270 270 258 250 255 252 248 238 235 181 171 187 185 197 202 190 204 188 182
87 72 60 38 13 1 352 354 342 349 345 342 346 331 332 327 315 311 306 297 291 281 276 274 264 260 266 272 269 260 251 244 221 202 175 183 186 195 198 180 187 180 173